OBJECT C, 61229

Orbit data source: Space-Track

You're viewing an Uncataloged Satellite

Recently launched and/or uncataloged satellites may have evolving metadata. Metadata may include but not limited to: Owner, Maufacturer, Bus, Motor, and Mission.

OBJECT C, 61229 is a satellite owned by Wuhan daxue (CN) in SSO that was launched on Tue, 24 Sep 2024 UTC via a JIELONG-3 launch vehicle from the Yellow Sea Launch Area, China (YSLA). Unknown objects in Earth's orbit typically refer to objects detected orbiting the Earth but have not yet been identified or cataloged. These objects could be anything from previously untracked satellites, spent rocket stages, debris from satellite collisions, or even natural meteoroids temporarily captured by Earth's gravity.

Loading next visibility...
Identifier
61229, 2024-173C
Orbit
SSO
Country
Flag of CNCN / PRC
Related business
None
Manufacturer
Wuhan daxue
Mission
Operational Amateur Imaging
Bus & Motor
LUOJIA-4, Unknown motor
Mass
60 kg wet, 60 kg dry
Launch date (UTC)
2024-09-24 (1 year ago)
Launch vehicle
JIELONG-3
Launch site
Yellow Sea Launch Area, China (YSLA)
Object type
Unknown
Shape & HBR
Box + 1 Pan, 1.0 m
Radar Cross Section
3.032 m², Medium (>0.1 m² and < 1m²)

Expand to show TLE details & history
Last TLE update: 13 hours ago

TLE from 13 hours ago
0 OBJECT C
1 61229U 24173C   25258.30724450  .00031479  00000-0  98397-3 0  9997
2 61229  97.3685 334.1296 0016311  58.0070 302.2754 15.32969485 54396
Epoch: 2025-09-15T07:22Z
TLE epoch observation values (Epoch: 2025-09-15T07:22:25.924Z)
Latitude
-0.00013°
Longitude
-130.99218°
Altitude
464.117 km
Speed
7.638 km/s
True Right ascension
22h 16m 31s
True Declination
0° 00' 00"
Sunlit
Object was in full shadow at epoch
Visualization orbit readout
Latitude
Unknown
Longitude
Unknown
Altitude
Unknown
Speed
Unknown
Apparent Right ascension
Unknown
Apparent Declination
Unknown
Sunlit
N/A
Visualization observer readout
Local Sidereal Time
12:51:42
Azimuth
Unknown
Elevation
Unknown
Doppler factor
Unknown
Orbital elements
Apogee altitude
475.065 km
Perigee altitude
452.745 km
Semi-major axis
6,842.042 km
Eccentricity
0.00163
Inclination
97.3685°
RAAN
334.1296°
Arg. of periapsis
58.007°
True anomaly
302.1172°
Mean anomaly
302.2754°
Eccentric anomaly
302.19632°
Mean motion
3.83499 °/min
Orbital period
93.87 mins
BSTAR
0.00098397
Loading maneuver chart data...
Computing Atmospheric mass density...
Loading historical data...
Loading historical data...
Loading historical data...
Loading historical data...
Loading historical data...
Loading historical data...
Loading historical data...

Documentation

Showing up to 5 results
|